FENGYUN 1C DEB, 29965

Orbit data source: Space-Track

FENGYUN 1C DEB, 29965 is space debris in SSO originally from a launch on Mon, 10 May 1999 UTC launched from the Taiyaun Space Center, China (TSC). Fengyun 1C debris stems from the Chinese weather satellite Fengyun-1C, which was intentionally destroyed by a Chinese anti-satellite missile in 2007. This event dramatically increased the amount of space debris, with thousands of trackable fragments posing hazards to satellites and human spaceflight. The Fengyun 1C debris cloud has become a focal point in discussions about space sustainability and the need for international regulations to prevent the creation of new debris.

Loading next visibility...
Identifier
29965, 1999-025KP
Orbit
SSO
Country
Flag of CNCN / PRC
Related business
Manufacturer
Unknown
Mission
Spacecraft
Bus & Motor
Unknown
Mass
Unknown
Launch date (UTC)
1999-05-10 (27 years ago)
Launch vehicle
Unknown
Launch site
Taiyaun Space Center, China (TSC)
Object type
Payload
Rocket body
Debris
Shape & HBR
Unknown shape, 0.2 m
Radar Cross Section
Medium (>0.1 m² and <1 m²)

Expand to show TLE details & history
Last TLE update: 23 hours ago

TLE from 23 hours ago
0 FENGYUN 1C DEB
1 29965U 99025KP  26207.47797032 -.00000142  00000-0 -66513-4 0  9996
2 29965  98.9741 201.2686 0145252 167.2531 344.8929 13.95891023994259
Epoch: 2026-07-26T11:28Z
TLE epoch observation values (Epoch: 2026-07-26T11:28:16.635Z)
Latitude
27.96245°
Longitude
-90.19263°
Altitude
809.368 km
Speed
7.503 km/s
True Right ascension
01h 44m 12s
True Declination
27° 49' 17"
Sunlit
Object was in daylight at epoch
Visualization orbit readout
Latitude
Unknown
Longitude
Unknown
Altitude
Unknown
Speed
Unknown
Apparent Right ascension
Unknown
Apparent Declination
Unknown
Sunlit
N/A
Visualization observer readout
Local Sidereal Time
00:01:31
Azimuth
Unknown
Elevation
Unknown
Doppler factor
Unknown
Orbital elements
Apogee altitude
1,011.054 km
Perigee altitude
799.469 km
Semi-major axis
7,283.398 km
Eccentricity
0.01453
Inclination
98.9741°
RAAN
201.2686°
Arg. of periapsis
167.2531°
True anomaly
344.45137°
Mean anomaly
344.8929°
Eccentric anomaly
344.67292°
Mean motion
3.49174 °/min
Orbital period
103.1 mins
BSTAR
-0.000066513
Loading maneuver chart data...
Computing Atmospheric mass density...
Loading historical data...
Loading historical data...
Loading historical data...
Loading historical data...
Loading historical data...
Loading historical data...
Loading historical data...

Documentation

Showing up to 5 results
|